Location: Hope
(40.9110°N, 74.9680°W)
Time: 03:42:44
(UTC-04:00)

VELOX 1 - Pass Details

Date: 05 August 2021
Orbit: 626 x 643 km, 98.3° (Epoch: 26 September)

Event Time Altitude Azimuth Distance (km) Brightness Sun altitude
Exits shadow 04:13:04 - 160° (SSE) 2,481 ? -17.8°
Reaches altitude 10° 04:14:10 10° 159° (SSE) 2,024 ? -17.6°
Maximum altitude 04:18:34 74° 75° (ENE) 672 ? -17.0°
Drops below altitude 10° 04:23:01 10° 351° (N) 2,046 ? -16.4°
Sets 04:25:14 0° 349° (N) 2,961 ? -16.0°
